Regional Weather Roundup
Issued by NWS Albany, NY

Home | Current Version | Previous Version | Graphics & Text | Print | Product List | Glossary Off
Versions: 1 2 3 4 5 6 7 8 9 10 11 12 13 14 15 16 17 18 19 20 21 22 23 24 25 26 27 28 29 30 31 32 33 34 35 36 37 38 39 40 41 42 43 44 45 46 47 48 49 50

000
ASUS41 KALY 021710
RWRALY

NEW YORK STATE HOURLY WEATHER ROUNDUP
NATIONAL WEATHER SERVICE ALBANY NY
100 PM EDT MON MAY 02 2016

NOTE: "FAIR" INDICATES FEW OR NO CLOUDS BELOW 12,000 FEET WITH NO
SIGNIFICANT WEATHER AND/OR NO OBSTRUCTIONS TO VISIBILITY.

NYZ032-033-038>043-046>054-057>066-NYZ062>081-082-084-021800-
EAST


CITY           SKY/WX    TMP DP  RH WIND       PRES   REMARKS
ALBANY         DRIZZLE   48  45  89 S9        29.91S
GLENS FALLS    LGT RAIN  47  44  90 N6        29.92R FOG
POUGHKEEPSIE   CLOUDY    50  46  86 W5        29.93R FOG
NEWBURGH       LGT RAIN  48  48 100 VRB6      29.94  FOG
MONTGOMERY     CLOUDY    49  47  93 SW6       29.93S FOG
WHITE PLAINS     N/A     49  48  97 VRB3      29.94S FOG
ISLIP          CLOUDY    53  48  83 S6        29.94F
NEW YORK CITY  CLOUDY    54  47  77 S6        29.94F
CENTRAL PARK   CLOUDY    53  48  83 CALM      29.97F
$$

NYZ005>009-017-018-044>046-055-056-021800-
CENTRAL


CITY           SKY/WX    TMP DP  RH WIND       PRES   REMARKS
FULTON         LGT RAIN  50  46  86 NW9       29.95R
SYRACUSE       RAIN      49  48  97 W9        29.94R FOG
ROME           LGT RAIN  49  46  90 SE3       29.90F
ELMIRA         CLOUDY    53  46  77 N5        29.92R
BINGHAMTON     CLOUDY    49  48  97 W6        29.88R
MONTICELLO     CLOUDY    46  45  93 S8        29.91F
$$

NYZ026>034-041>043-087-021800-
NORTH


CITY           SKY/WX    TMP DP  RH WIND       PRES   REMARKS
WATERTOWN      LGT RAIN  46  44  93 N8        29.94S FOG
FORT DRUM      NOT AVBL
MASSENA        LGT RAIN  47  43  86 NE13      29.96S
SARANAC LAKE   LGT RAIN  44  41  89 NE8       29.87F FOG
PLATTSBURGH    RAIN      45  43  93 E5        29.94F FOG
$$

NYZ001>004-010>016-019>021-085-021800-
WEST


CITY           SKY/WX    TMP DP  RH WIND       PRES   REMARKS
NIAGARA FALLS  CLOUDY    47  42  83 N7        30.00R
BUFFALO        CLOUDY    47  41  80 N6        29.99R
DUNKIRK        CLOUDY    45  43  93 N9        30.00S
JAMESTOWN      CLOUDY    43  39  87 N9        29.95S VSB<1/4
WELLSVILLE     CLOUDY    48  45  89 N8        29.94R
ROCHESTER      CLOUDY    47  45  93 NE9       29.98S
PENN YAN       CLOUDY    48  45  89 NW10      29.95R
$$

             KEY
       WCI = WIND CHILL INDEX
       VSB = VISIBILITY
       HX  = HEAT INDEX
$$



USA.gov is the U.S. government's official web portal to all federal, state and local government web resources and services.